This demonstration page uses our WeatherBlox Daily Observations layout. Learn more.

Left ArrowRight Arrow

Hourly Observations for October 20, 2015

Temp ( °F °C ) Dew Point ( °F °C ) Humidity (%) Winds ( mph kmh ) Pressure ( in mb ) Visibility ( mi km ) Precip ( " mm )
12:53 am 00:53 Clear 60 15.6 49 9.4 67 67 NW 6 9 30.03 1017 10 16 0.00 0.00
1:53 am 01:53 Clear 62 16.7 48 8.9 60 60 NNW 9 15 30.02 1017 10 16 0.00 0.00
2:53 am 02:53 Clear 61 16.1 48 8.9 63 63 NW 10 17 30.02 1017 10 16 0.00 0.00
3:53 am 03:53 Clear 61 16.1 47 8.3 60 60 NNW 8 13 30.02 1017 10 16 0.00 0.00
4:53 am 04:53 Clear 63 17.2 46 7.8 54 54 NNW 10 17 30.02 1017 10 16 0.00 0.00
5:53 am 05:53 Clear 60 15.6 46 7.8 60 60 NNW 8 13 30.04 1017 10 16 0.00 0.00
6:53 am 06:53 Clear 62 16.7 45 7.2 54 54 NNW 7 11 30.04 1017 10 16 0.00 0.00
7:53 am 07:53 Sunny 64 17.8 45 7.2 50 50 N 8 13 30.05 1018 10 16 0.00 0.00
8:53 am 08:53 Sunny 67 19.4 46 7.8 47 47 N 12 19 30.06 1018 10 16 0.00 0.00
9:53 am 09:53 Sunny 70 21.1 45 7.2 41 41 NNW 13 20 30.06 1018 10 16 0.00 0.00
10:53 am 10:53 Sunny 73 22.8 44 6.7 35 35 N 23 37 30.04 1017 10 16 0.00 0.00
11:53 am 11:53 Sunny 77 25 43 6.1 30 30 N 21 33 30.03 1017 10 16 0.00 0.00
12:53 pm 12:53 Sunny 78 25.6 42 5.6 28 28 N 21 33 30.02 1017 10 16 0.00 0.00
1:53 pm 13:53 Sunny 81 27.2 40 4.4 23 23 NNE 25 41 29.98 1015 10 16 0.00 0.00
2:53 pm 14:53 Sunny 83 28.3 41 5 23 23 NNE 17 28 29.95 1014 10 16 0.00 0.00
3:53 pm 15:53 Sunny 85 29.4 38 3.3 19 19 N 16 26 29.93 1014 10 16 0.00 0.00
4:53 pm 16:53 Sunny 83 28.3 41 5 23 23 NNW 9 15 29.93 1014 10 16 0.00 0.00
5:53 pm 17:53 Sunny 82 27.8 43 6.1 25 25 NNW 6 9 29.93 1013 10 16 0.00 0.00
6:53 pm 18:53 Clear 78 25.6 44 6.7 30 30 N 9 15 29.93 1014 10 16 0.00 0.00
7:53 pm 19:53 Clear 75 23.9 45 7.2 34 34 NNW 9 15 29.96 1014 10 16 0.00 0.00
8:53 pm 20:53 Clear 75 23.9 44 6.7 33 33 N 12 19 29.96 1015 10 16 0.00 0.00
9:53 pm 21:53 Clear 73 22.8 43 6.1 34 34 N 9 15 29.97 1015 10 16 0.00 0.00
10:53 pm 22:53 Clear 73 22.8 42 5.6 33 33 N 8 13 29.98 1015 10 16 0.00 0.00
11:53 pm 23:53 Clear 72 22.2 41 5 33 33 N 12 19 29.98 1015 10 16 0.00 0.00

Powered by AerisWeather